Location: ?????
(31.8092°N, 35.2590°E)
Time: 17:10:51
(UTC+00:00)

Cosmos 2285 Rocket - Pass Details

Date: 20 June 2021
Orbit: 971 x 998 km, 74.0° (Epoch: 03 August)

Event Time Altitude Azimuth Distance (km) Brightness Sun altitude
Rises 17:06:53 0° 190° (S) 3,700 6.8 -4.4°
Reaches altitude 10° 17:09:26 10° 189° (S) 2,755 6.1 -4.9°
Maximum altitude 17:15:49 76° 104° (ESE) 1,029 4.0 -6.0°
Drops below altitude 10° 17:22:14 10° 20° (NNE) 2,766 6.6 -7.2°
Sets 17:24:48 0° 19° (NNE) 3,716 7.2 -7.6°
